Location: Waco, TX
(31.5480°N, 97.1670°W)
Time: 03:02:58
(UTC-05:00)

ISS - Pass Details

Date: 20 September 2017
Orbit: 401 x 407 km, 51.6° (Epoch: 22 September)

Event Time Altitude Azimuth Distance (km) Brightness Sun altitude
Rises 21:30:59 0° 208° (SSW) 2,301 - -26.7°
Reaches altitude 10° 21:33:08 10° 200° (SSW) 1,447 - -27.1°
Maximum altitude 21:36:10 38° 131° (SE) 634 - -27.7°
Drops below altitude 10° 21:39:14 10° 61° (ENE) 1,458 - -28.3°
Sets 21:41:23 0° 53° (NE) 2,322 - -28.8°
